85P/Boethin (1997)

Japanese version
Home page
Updated on August 31, 2008

---------------------------------------------------------------------

* Profile

* Orbital Elements

Epoch 1997 Apr. 22.0 TT = JDT 2450560.5
T 1997 Apr. 17.70258 TT                                 Muraoka
q   1.1581589            (2000.0)            P               Q
n   0.08475443     Peri.   22.32478     +0.80166185     -0.59740283
a   5.1328800      Node    14.41893     +0.53480413     +0.70093868
e   0.7743647      Incl.    4.87681     +0.26706334     +0.38960855
P  11.63
>From 55 observations 1975-1986, mean residual 1".42.

* Finding Charts

* 1996 Aug. 5 - 1997 May 12
* 1997 Apr. 22 - 1998 Jan. 27

* Magnitudes Graph

        m1 = 5.0 + 5 log d + 40 log r

---------------------------------------------------------------------

The orbital elements are calculated by Kenji Muraoka.
The charts are made with StellaNavigator Ver.2.0 for Windows (AstroArts / ASCII).
The magnitudes graphs are made with Comet for Windows.

---------------------------------------------------------------------

Copyright(C) Seiichi Yoshida (comet@aerith.net). All rights reserved.